FW6856 Weather Reports


time (UTC)temp
F
wind
direction
speed
knots
gust
knots
rain 1hr
in
rain 24hr
in
rain mn
in
humidity
%
barometer
mb
20260504000044 54 251 1.7 5.2 0.00 0.00 0.00 39 1018.4
20260503234549 55 360 0.9 5.2 0.00 0.00 0.00 40 1018.4
20260503233047 56 360 1.7 7.0 0.00 0.00 0.00 38 1018.3
20260503231548 57 360 1.7 6.1 0.00 0.00 0.00 38 1018.4
20260503230051 58 360 1.7 4.3 0.00 0.00 0.00 37 1018.4
20260503224542 59 360 1.7 7.0 0.00 0.00 0.00 37 1018.3
20260503223048 59 259 2.6 7.0 0.00 0.00 0.00 38 1018.5
20260503221545 59 360 2.6 7.0 0.00 0.00 0.00 38 1018.5
20260503220045 59 279 1.7 7.8 0.00 0.00 0.00 43 1018.5
20260503214543 59 360 2.6 7.8 0.00 0.00 0.00 42 1018.6
20260503213048 61 236 1.7 7.0 0.00 0.00 0.00 39 1018.6
20260503211545 62 287 1.7 7.8 0.00 0.00 0.00 37 1018.7
20260503210044 61 296 0.9 4.3 0.00 0.00 0.00 37 1018.6
20260503204545 60 360 2.6 9.6 0.00 0.00 0.00 33 1018.8
20260503203053 60 360 2.6 7.8 0.00 0.00 0.00 32 1019.0
20260503201546 60 360 2.6 7.0 0.00 0.00 0.00 32 1019.1
20260503200045 59 205 2.6 9.6 0.00 0.00 0.00 32 1019.4
20260503194544 59 360 3.5 8.7 0.00 0.00 0.00 36 1019.4
20260503193046 59 229 2.6 5.2 0.00 0.00 0.00 40 1019.8
20260503191549 59 216 1.7 5.2 0.00 0.00 0.00 41 1019.9
20260503190048 59 360 2.6 7.8 0.00 0.00 0.00 42 1020.1
20260503184558 57 184 2.6 11.3 0.00 0.00 0.00 44 1020.0
20260503183052 56 360 1.7 6.1 0.00 0.00 0.00 49 1020.1
20260503181554 58 247 2.6 8.7 0.00 0.00 0.00 49 1020.2
20260503180100 57 238 0.9 4.3 0.00 0.00 0.00 50 1020.2
20260503174546 56 288 1.7 7.0 0.00 0.00 0.00 48 1020.2
20260503173050 55 233 2.6 5.2 0.00 0.00 0.00 48 1020.3
20260503171539 54 226 0.9 5.2 0.00 0.00 0.00 47 1020.5
20260503081543 35 360 1.7 7.8 0.00 0.00 0.00 79 1017.0
20260503071557 36 284 1.7 8.7 0.00 0.00 0.00 77 1016.7
20260503060110 37 360 0.9 7.0 0.00 0.00 0.00 74 1016.7
20260503054557 37 296 1.7 8.7 0.00 0.00 0.00 74 1017.0
20260503053044 37 292 2.6 7.8 0.00 0.00 0.00 74 1016.9
20260503051544 37 292 2.6 7.0 0.00 0.00 0.00 74 1017.1
20260503050049 38 288 2.6 7.8 0.00 0.00 0.00 73 1017.2
20260503044542 38 360 2.6 7.0 0.00 0.00 0.00 72 1017.0
20260503043049 38 360 1.7 8.7 0.00 0.00 0.00 71 1016.9
20260503041545 38 360 1.7 7.8 0.00 0.00 0.00 70 1016.7
20260503040056 38 278 2.6 7.8 0.00 0.00 0.00 70 1016.7
20260503034549 39 360 2.6 10.4 0.00 0.00 0.00 69 1016.5
20260503033046 39 360 2.6 11.3 0.00 0.00 0.00 68 1016.5
20260503031549 39 360 3.5 8.7 0.00 0.00 0.00 67 1016.5
20260503030058 39 360 2.6 10.4 0.00 0.00 0.00 67 1016.2
20260503024547 39 360 2.6 7.8 0.00 0.00 0.00 66 1016.2
20260503023050 40 303 1.7 7.8 0.00 0.00 0.00 65 1016.1
20260503021551 40 360 1.7 7.8 0.00 0.00 0.00 64 1016.0
20260503020049 40 290 1.7 7.8 0.00 0.00 0.00 63 1015.8
20260503014544 41 360 1.7 9.6 0.00 0.00 0.00 61 1015.8
20260503013046 41 360 2.6 10.4 0.00 0.00 0.00 61 1015.4
20260503011545 42 360 2.6 7.8 0.00 0.00 0.00 59 1015.4
20260503010044 42 360 2.6 13.0 0.00 0.00 0.00 58 1015.3
20260503004558 42 360 2.6 7.8 0.00 0.00 0.00 57 1015.3
20260503003104 43 360 3.5 9.6 0.00 0.00 0.00 55 1015.0
20260503001600 44 360 3.5 13.9 0.00 0.00 0.00 53 1015.0